Regional Weather Roundup
Issued by NWS Sioux Falls, SD

Home | Current Version | Previous Version | Graphics & Text | Print | Product List | Glossary On
Versions: 1 2 3 4 5 6 7 8 9 10 11 12 13 14 15 16 17 18 19 20 21 22 23 24 25 26 27 28 29 30 31 32 33 34 35 36 37 38 39 40 41 42 43 44 45 46 47 48 49 50
000
ASUS43 KFSD 231402
RWRFSD

WEATHER ROUNDUP FOR SE SOUTH DAKOTA/SW MINNESOTA/NW IOWA
NATIONAL WEATHER SERVICE SIOUX FALLS SD
900 AM CDT THU OCT 23 2014

NOTE: "FAIR" INDICATES FEW OR NO CLOUDS BELOW 12,000 FEET WITH NO
SIGNIFICANT WEATHER AND OR OBSTRUCTIONS TO VISIBILITY.


SDZ038>040-050-052>070-231500-
SOUTHEAST SOUTH DAKOTA

CITY           SKY/WX    TMP DP  RH WIND       PRES   REMARKS
CHAMBERLAIN    CLEAR     41  40  95 CALM      30.00S
HURON          PTCLDY    38  36  92 SE6       30.00R
MADISON        FAIR      45  45 100 W6        30.02R
MITCHELL       CLEAR     42  41  96 SE5       30.02R
SIOUX FALLS    FOG       45  44  97 CALM      30.03R VSB 1/2
WINNER         FAIR      49  42  77 CALM      30.00R
YANKTON          N/A     43  41  93 CALM      30.04R VSB<1/4
$$

MNZ071-072-080-081-089-090-097-098-231500-
SOUTHWEST MINNESOTA

CITY           SKY/WX    TMP DP  RH WIND       PRES   REMARKS
FAIRMONT       CLOUDY    52  46  82 W6        30.02R VSB 1/2
JACKSON        FOG       50  46  87 SW6       30.03R VSB 1/2
LUVERNE        FOG       45  45 100 SW3       30.04R VSB<1/4
MARSHALL       SUNNY     52  45  76 W13       29.98R
MONTEVIDEO     SUNNY     45  45 100 CALM      30.00R FOG
PIPESTONE      FOG       46  45  93 CALM      30.02R VSB<1/4
REDWOOD FALLS  SUNNY     47  46  97 SW9       30.00R
TRACY          SUNNY     50  48  92 SW9       30.00R
WINDOM         FOG       48  48 100 SW7       30.02R VSB<1/4
WORTHINGTON    MOSUNNY   48  48 100 SW6       30.03R
$$

IAZ001>003-012>014-020>022-031-032-NEZ013-014-SDZ071-231500-
NORTHWEST IOWA

CITY           SKY/WX    TMP DP  RH WIND       PRES   REMARKS
CHEROKEE       FOG       50  50 100 CALM      30.05R VSB 1/4
DENISON        CLOUDY    57  57 100 NW5       30.03R FOG
ESTHERVILLE    FOG       49  49 100 W6        30.03R VSB 1/4
LE MARS        FOG       48  48 100 CALM      30.05S VSB<1/4
ORANGE CITY    FOG       50  48  93 CALM      30.04S VSB 1/2
SHELDON        FOG       45  45 100 CALM      30.03R VSB<1/4
SIOUX CITY     FOG       48  48 100 CALM      30.05R VSB 1/4
SPENCER        FOG       50  49  96 W3        30.04R VSB<1/4
STORM LAKE     FOG       52  52 100 NW7       30.05R VSB<1/4
$$

ABBREVIATIONS USED IN REMARKS
   TC - TEMPERATURE IN CELSIUS
  WCI - WIND CHILL INDEX
   HX - HEAT INDEX
  VSB - VISIBILITY




USA.gov is the U.S. government's official web portal to all federal, state and local government web resources and services.